Satellite-Ground Cal/Val Region Overpasses Predictions

Prediction of Satellite NPP Overpassing Cal/Val Region: PacNW

Region Location: (Latitude: 10.00, Longitude: 139.50) to (Latitude: 22.70, Longitude: 165.60).

Table of predicted overpasses for the next 14.0 days since TLE Epoch: 10/21/2017
Interval Starting Time Starting Location Ending Time Ending Location
1 10/22/2017 02:10:48 ( 19.23, 165.59) 10/22/2017 02:11:47 ( 22.70, 164.74)
2 10/22/2017 03:49:41 ( 10.02, 142.37) 10/22/2017 03:53:07 ( 22.11, 139.51)
3 10/22/2017 14:40:04 ( 22.70, 164.98) 10/22/2017 14:43:40 ( 10.02, 161.96)
4 10/22/2017 16:21:33 ( 22.69, 139.60) 10/22/2017 16:21:39 ( 22.34, 139.51)
5 10/23/2017 03:30:39 ( 10.05, 147.12) 10/23/2017 03:34:14 ( 22.67, 144.13)
6 10/23/2017 16:02:32 ( 22.67, 144.35) 10/23/2017 16:06:07 ( 10.04, 141.35)
7 10/24/2017 03:11:37 ( 10.01, 151.89) 10/24/2017 03:15:13 ( 22.69, 148.87)
8 10/24/2017 15:43:30 ( 22.70, 149.11) 10/24/2017 15:47:06 ( 10.02, 146.10)
9 10/25/2017 02:52:35 ( 10.04, 156.64) 10/25/2017 02:56:10 ( 22.66, 153.64)
10 10/25/2017 15:24:28 ( 22.67, 153.86) 10/25/2017 15:28:03 ( 10.05, 150.86)
11 10/26/2017 02:33:33 ( 10.01, 161.40) 10/26/2017 02:37:09 ( 22.69, 158.39)
12 10/26/2017 15:05:27 ( 22.64, 158.61) 10/26/2017 15:09:02 ( 10.02, 155.61)
13 10/27/2017 02:15:12 ( 12.44, 165.60) 10/27/2017 02:18:06 ( 22.66, 163.15)
14 10/27/2017 03:56:01 ( 10.04, 140.77) 10/27/2017 03:57:34 ( 15.50, 139.51)
15 10/27/2017 14:46:24 ( 22.67, 163.37) 10/27/2017 14:49:59 ( 10.05, 160.38)
16 10/28/2017 03:36:59 ( 10.01, 145.54) 10/28/2017 03:40:35 ( 22.69, 142.52)
17 10/28/2017 14:30:23 ( 12.08, 165.60) 10/28/2017 14:30:58 ( 10.02, 165.13)
18 10/28/2017 16:08:52 ( 22.70, 142.76) 10/28/2017 16:12:28 ( 10.02, 139.75)
19 10/29/2017 03:17:57 ( 10.04, 150.29) 10/29/2017 03:21:32 ( 22.66, 147.29)
20 10/29/2017 15:49:50 ( 22.67, 147.51) 10/29/2017 15:53:25 ( 10.05, 144.51)
21 10/30/2017 02:58:55 ( 10.01, 155.05) 10/30/2017 03:02:31 ( 22.69, 152.04)
22 10/30/2017 15:30:48 ( 22.70, 152.27) 10/30/2017 15:34:24 ( 10.02, 149.26)
23 10/31/2017 02:39:54 ( 10.04, 159.80) 10/31/2017 02:43:29 ( 22.66, 156.80)
24 10/31/2017 15:11:46 ( 22.67, 157.02) 10/31/2017 15:15:21 ( 10.05, 154.03)
25 11/01/2017 02:20:51 ( 10.01, 164.56) 11/01/2017 02:24:27 ( 22.69, 161.55)
26 11/01/2017 14:52:44 ( 22.70, 161.79) 11/01/2017 14:56:20 ( 10.02, 158.77)
27 11/02/2017 03:43:20 ( 10.05, 143.93) 11/02/2017 03:46:55 ( 22.67, 140.94)
28 11/02/2017 14:34:47 ( 18.86, 165.60) 11/02/2017 14:37:17 ( 10.05, 163.54)
29 11/02/2017 16:15:12 ( 22.66, 141.16) 11/02/2017 16:17:08 ( 15.86, 139.51)
30 11/03/2017 03:24:17 ( 10.02, 148.70) 11/03/2017 03:27:53 ( 22.70, 145.68)
31 11/03/2017 15:56:10 ( 22.69, 145.92) 11/03/2017 15:59:46 ( 10.01, 142.91)
32 11/04/2017 03:05:16 ( 10.05, 153.45) 11/04/2017 03:08:51 ( 22.67, 150.45)


NCC Satellite Cal/Val Overpasses Prediction Service
